OpenBCM V2.0.3 (Linux)

Packet Radio Mailbox

IZ3LSV

[San Dona' di P. JN]

 Login: GUEST





  
I0OJJ  > AMSAT    04.06.26 02:33l 329 Lines 15514 Bytes #999 (0) @ WW
BID : 224_IR0EQ
Read: GUEST
Subj: 2Line Orbital Elements
Path: IZ3LSV<I0OJJ<IR0EQ
Sent: 260604/0027z @:IR0EQ.ITA.EU [Rome] $:224_IR0EQ

>From i0ojj%ir0eq.ita.eu@i0ojj.ampr.org Thu Jun  4 02:30:22 2026
Received: from i0ojj.ampr.org by i0ojj.ampr.org (JNOS2.0q.1) with SMTP
	id AA17061601 ; Thu, 04 Jun 2026 02:30:22 +0200
Message-Id: <224_IR0EQ@i0ojj.bbs>
>From: i0ojj@ir0eq.ita.eu
X-JNOS-User-Port: Telnet   (i0ojj @ 44.27.18.9)  ->   Sending message

>From i0ojj@rgate.ampr.org Thu Jun  4 02:27:22 2026
Received: from rgate.ampr.org by rgate.ampr.org (JNOS2.0q.1) with SMTP
	id AA2668 ; Thu, 04 Jun 2026 02:27:22 +0200
Received: by rgate.ampr.org with SMTP
	id AA2665 ; Thu, 04 Jun 2026 02:27:02 +0200
Message-Id: <2666@rgate.ampr.org>
>From: i0ojj@rgate.ampr.org

SB KEPS @ AMSAT  $ORB26155.1
2Line Orbital Elements 26155.AMSAT

QST de W1STR

AMSAT Orbital Elements for Amateur Satellites in TLE Format
>From Orbital Analysis Office
New England Sci-Tech STEM Education Center
Natick MA June 04, 2026
To all radio amateurs


These element sets describe the orbits of various satellites 
in use by the amateur radio community. For details see:
www.amsat.org/keplerian-elements-formats/

A daily update of element sets is available at:
www.amsat.org/tle/daily-bulletin.txt
or without bulletin text:
www.amsat.org/tle/dailytle.txt


AO-07
1 07530U 74089B   26154.59094270 -.00000046  00000-0 -32465-6 0  9995
2 07530 101.9902 167.6956 0012419 155.4636 327.2610 12.53697887358818
UO-11
1 14781U 84021B   26154.73005965  .00001547  00000-0  16315-3 0  9995
2 14781  97.8051 120.4560 0006477 220.2530 139.8209 14.90749012255123
AO-27
1 22825U 93061C   26154.15492844  .00000132  00000-0  67000-4 0  9996
2 22825  98.6883 221.5730 0009211 136.3443 223.8470 14.30938275704997
FO-29
1 24278U 96046B   26154.55915221 -.00000028  00000-0  49295-5 0  9991
2 24278  98.5251   5.2975 0350637 131.7079 231.4625 13.53273610471326
GO-32
1 25397U 98043D   26154.57772250  .00000069  00000-0  49972-4 0  9993
2 25397  99.0064 146.9934 0000319 213.6137 146.5021 14.24425648449396
ISS
1 25544U 98067A   26154.70949191  .00008646  00000-0  16154-3 0  9992
2 25544  51.6330   6.8180 0007089 128.9940 231.1681 15.49585865569660
NO-44
1 26931U 01043C   26154.60928777  .00000163  00000-0  91734-4 0  9991
2 26931  67.0512 279.3895 0006115 263.9670  96.0735 14.31950876288500
SO-50
1 27607U 02058C   26154.26409835  .00001126  00000-0  14986-3 0  9993
2 27607  64.5505 172.0623 0075520 265.0164  94.2317 14.83015002262395
CO-55
1 27844U 03031E   26154.54951728  .00000336  00000-0  16425-3 0  9994
2 27844  98.6736 163.2800 0008691 219.4250 140.6297 14.24327019189733
RS-22
1 27939U 03042A   26154.84397478  .00001442  00000-0  23045-3 0  9995
2 27939  98.3464 338.8261 0010391 316.7833 156.3057 14.73444231213581
CO-65
1 32785U 08021C   26154.79120198  .00005289  00000-0  33543-3 0  9996
2 32785  97.8272 135.9334 0010737  77.9665 282.2766 15.09316661983177
CO-66
1 32791U 08021J   26154.55442507  .00020146  00000-0  64842-3 0  9993
2 32791  97.7515 151.8069 0002991  42.0128 318.1342 15.32257900985206
RS-30
1 32953U 08025A   26154.81958497 -.00000021  00000-0 -22347-3 0  9992
2 32953  82.5045   3.7573 0019423 343.7662  16.2793 12.43178538818033
SRMSAT
1 37841U 11058D   26152.32622016  .00000395  00000-0  70452-4 0  9995
2 37841  19.9701 155.4732 0011864  30.5063  85.9028 14.11572059755572
ZACUBE-1
1 39417U 13066B   26154.47592829  .00004583  00000-0  35711-3 0  9994
2 39417  97.8107 116.7386 0039888 296.2367  63.4759 15.01091454678679
Delfi-N3xt
1 39428U 13066N   26154.32326172  .00007065  00000-0  61926-3 0  9991
2 39428  97.8344  74.6487 0072775 252.4235 106.9026 14.94933717672557
GOMX-1
1 39430U 13066Q   26154.83937539  .00002014  00000-0  30652-3 0  9996
2 39430  97.6488 356.1444 0129930 119.9409 241.4773 14.69405559667956
LO-74
1 39440U 13066AA  26154.33051700  .00005093  00000-0  47123-3 0  9990
2 39440  97.8904 103.2522 0059453  73.9566 286.8190 14.93641817674922
AO-73
1 39444U 13066AE  26154.73167874  .00008204  00000-0  51139-3 0  9997
2 39444  97.8276 125.8984 0034698 248.4796 111.2732 15.09317269677631
DTUSAT-2
1 40030U 14033W   26154.49930988  .00007208  00000-0  39161-3 0  9996
2 40030  98.0863 151.3595 0006106 284.1702  75.8850 15.14831413650611
LILACSAT-2
1 40908U 15049K   26154.85471987  .00018674  00000-0  32306-3 0  9990
2 40908  97.4655 191.1930 0005393 310.2252  49.8528 15.50983334593686
Horyu-4
1 41340U 16012D   26152.43486084  .00260233  00000-0  10081-2 0  9993
2 41340  30.9850 193.7734 0002293 171.6706 188.3991 15.85409012568303
Lapan A3
1 41603U 16040E   26154.87581348  .00003727  00000-0  11898-3 0  9996
2 41603  97.1487 151.4602 0012063  68.0599 292.1925 15.33016901552775
CAS-2T
1 41847U 16066G   26154.80367828  .00001811  00000-0  26168-3 0  9990
2 41847  98.3818 230.6923 0342264 169.9891 190.8353 14.44648349502869
TechnoSat
1 42829U 17042E   26154.75162404  .00003283  00000-0  23544-3 0  9993
2 42829  97.4274 312.9235 0018984 136.0818 224.1922 15.04873630484681
AO-91
1 43017U 17073E   26154.58070662  .00011424  00000-0  49801-3 0  9992
2 43017  97.4712  22.0755 0151634  16.2859 344.3167 15.12470588463337
S-Net D
1 43186U 18014G   26154.54043923  .00006087  00000-0  31519-3 0  9997
2 43186  97.5372  59.4172 0009939  70.8529 289.3779 15.16536098456695
S-Net B
1 43187U 18014H   26154.81555774  .00006108  00000-0  31648-3 0  9997
2 43187  97.5378  59.6766 0010461  65.8455 294.3871 15.16508833456737
S-Net A
1 43188U 18014J   26154.27546338  .00006127  00000-0  31718-3 0  9993
2 43188  97.5390  59.3462 0010428  67.9189 292.3150 15.16540722456654
S-Net C
1 43189U 18014K   26154.29149897  .00006053  00000-0  31370-3 0  9997
2 43189  97.5406  59.4346 0011645  61.0421 299.1978 15.16493858455201
Ten-Koh
1 43677U 18084G   26154.60822997  .00003129  00000-0  23806-3 0  9996
2 43677  98.0773 346.3982 0010083 158.8702 201.2941 15.02879943414120
PO-101
1 43678U 18084H   26154.83203566  .00003549  00000-0  28739-3 0  9993
2 43678  98.1151 350.4626 0011788 214.8899 145.1552 15.00387020414218
QO-100
1 43700U 18090A   26154.85724575  .00000156  00000-0  00000+0 0  9994
2 43700   0.0179   1.1383 0001971 105.3537 120.2160  1.00272337 27546
MinXSS-2
1 43758U 18099A   26154.82696301  .00036291  00000-0  74360-3 0  9991
2 43758  97.4539 230.7293 0006027 313.4320  46.6427 15.45974988412065
AO-95
1 43770U 18099N   26153.65690559  .00013340  00000-0  51466-3 0  9996
2 43770  97.4393 213.9599 0009472  47.7228 312.4812 15.26380169411006
SNUSat 2
1 43782U 18099AA  26153.66956322  .00009033  00000-0  40263-3 0  9990
2 43782  97.4063 207.2781 0009726 356.5821   3.5347 15.21606603410823
SnugLite
1 43784U 18099AC  26154.38261741  .00012815  00000-0  48802-3 0  9995
2 43784  97.3872 208.8009 0002298  13.9092 346.2209 15.26859768411218
ITASat 1
1 43786U 18099AE  26154.38532110  .00007545  00000-0  36422-3 0  9997
2 43786  97.4031 206.1736 0013579  47.1659 313.0714 15.18871093410812
EAGLET 1
1 43790U 18099AJ  26153.89869493  .00004648  00000-0  26777-3 0  9997
2 43790  97.4232 203.9460 0012022  42.1278 318.0875 15.12822306410172
ESEO
1 43792U 18099AL  26154.67648483  .00001150  00000-0  86897-4 0  9995
2 43792  97.3964 192.6439 0012641  27.0590 333.1293 15.04199006409772
JO-97
1 43803U 18099AX  26153.87000389  .00017885  00000-0  55972-3 0  9997
2 43803  97.4135 216.6595 0004372 332.8214  27.2798 15.33171132411437
Suomi 100
1 43804U 18099AY  26153.67050821  .00013740  00000-0  50369-3 0  9993
2 43804  97.4192 214.1208 0008951 339.6537  20.4344 15.28070071411206
ISAT
1 43879U 18111D   26154.59905898  .00093405  00000-0  10282-2 0  9990
2 43879  97.5897  88.8003 0003379  50.3320 309.8235 15.62832984409045
UWE-4
1 43880U 18111E   26154.36119365  .00034900  00000-0  73362-3 0  9997
2 43880  97.5860  82.1246 0008243  33.3192 326.8573 15.45215882408648
Sparrow
1 43881U 18111F   26154.32191512  .00146463  00000-0  11780-2 0  9991
2 43881  97.6132  93.8877 0005342  94.1599 266.0273 15.70483668409194
Prox-1
1 44339U 19036A   26153.39522389  .00013271  00000-0  13054-2 0  9999
2 44339  23.9937 213.0381 0005645 216.2369 143.7749 14.90241213371266
Taurus 1
1 44530U 19059C   26154.78395957  .00006296  00000-0  10120-2 0  9990
2 44530  98.6409 318.7827 0008168   2.6153 357.5093 14.71945324356679
TO-108
1 44881U 19093C   26154.85137543  .00000895  00000-0  10704-3 0  9998
2 44881  97.7535 227.4084 0014663 126.6586 233.5980 14.86497180349435
RS-44
1 44909U 19096E   26154.55795043  .00000003  00000-0 -35195-4 0  9998
2 44909  82.5219 348.7638 0217569 175.9719 184.3201 12.79748571300602
SALSAT
1 46495U 20068K   26154.53943321  .00008826  00000-0  31028-3 0  9993
2 46495  97.8849 156.7757 0009424   1.6764 358.4505 15.29589697313273
CSS (TIANHE-1)
1 48274U 21035A   26154.85748769  .00025248  00000-0  30345-3 0  9997
2 48274  41.4695  43.0896 0009802 336.7611  23.2783 15.60219526291084
CUTE
1 49263U 21088D   26154.22461082  .00406363  00000-0  14408-2 0  9997
2 49263  97.4168 252.2144 0006699 259.6590 100.3927 15.88005002260332
TeikyoSat 4
1 49396U 21102B   26154.66384646  .00001745  00000-0  11271-3 0  9990
2 49396  97.3671 184.6731 0011495 348.2859  11.8101 15.09458845250687
Z-Sat
1 49399U 21102E   26154.88438116  .00004829  00000-0  23899-3 0  9994
2 49399  97.3329 190.6111 0014907 296.9051  63.0660 15.18160797251421
KOSEN 1
1 49402U 21102H   26154.57459392  .00008056  00000-0  30944-3 0  9999
2 49402  97.3188 196.9974 0012077 252.1899 107.8022 15.26637015251942
HO-113
1 50466U 21131B   26154.86490810  .00000503  00000-0  16894-3 0  9992
2 50466  98.4979 247.3267 0005036 128.0082 232.1562 14.41344452233196
SNUGLITE 2
1 52899U 22065F   26153.81818698  .00001149  00000-0  22678-3 0  9997
2 52899  98.2186 298.6759 0008699  72.9663 287.2492 14.64318814208891
